FW5735 Weather Reports


time (UTC)temp
C
wind
direction
speed
KPH
gust
KPH
rain 1hr
cm
rain 24hr
cm
rain mn
cm
humidity
%
barometer
mb
20260504204558 13 248 30.6 51.5 0.00 1.60 0.08 46 1001.9
20260504203048 13 219 24.1 43.5 0.00 1.60 0.08 48 1001.8
20260504201544 13 253 16.1 30.6 0.00 1.60 0.08 51 1001.6
20260504200042 13 249 25.7 45.1 0.00 1.60 0.08 50 1001.6
20260504194540 13 257 25.7 54.7 0.00 1.60 0.08 51 1001.3
20260504193053 13 249 22.5 43.5 0.00 1.60 0.08 53 1001.2
20260504191536 12 259 20.9 48.3 0.00 1.60 0.08 55 1001.3
20260504190035 12 258 16.1 46.7 0.00 1.60 0.08 60 1000.9
20260504184530 12 259 17.7 43.5 0.00 1.60 0.08 62 1001.1
20260504183029 12 214 22.5 40.2 0.00 1.60 0.08 64 1000.8
20260504181528 12 225 22.5 40.2 0.00 1.60 0.08 65 1000.6
20260504180025 12 263 19.3 41.8 0.00 1.60 0.08 67 1000.5
20260504174522 12 244 22.5 45.1 0.00 1.60 0.08 66 1000.2
20260504173020 12 247 20.9 46.7 0.00 1.60 0.08 66 1000.0
20260504171517 11 257 25.7 48.3 0.00 1.60 0.08 69 1000.0
20260504050022 3 260 17.7 30.6 0.05 1.40 0.13 97 978.9
20260504044521 3 257 14.5 25.7 0.03 1.37 0.10 97 978.4
20260504043023 3 284 9.7 22.5 0.03 1.37 0.08 97 978.2
20260504041509 5 266 12.9 22.5 0.05 1.37 0.08 98 977.4
20260504040015 4 267 4.8 14.5 0.08 1.37 0.08 98 977.1
20260504034502 4 284 3.2 9.7 0.08 1.37 0.08 98 976.6
20260504033105 4 307 1.6 9.7 0.05 1.35 0.05 98 976.4
20260504031604 4 304 3.2 12.9 0.05 1.32 0.05 98 976.2
20260504030054 4 319 4.8 12.9 0.03 1.27 0.00 98 976.1
20260504024551 5 5 9.7 16.1 0.05 1.27 1.27 98 976.0
20260504023050 5 5 4.8 14.5 0.03 1.27 1.27 98 976.1
20260504021547 5 66 4.8 14.5 0.05 1.27 1.27 98 976.2
20260504020056 5 93 4.8 16.1 0.05 1.27 1.27 98 976.5
20260504014550 5 88 8.0 22.5 0.05 1.24 1.24 98 977.0
20260504013040 5 88 6.4 22.5 0.05 1.24 1.24 98 977.2
20260504011542 5 67 11.3 29.0 0.05 1.22 1.22 98 977.4
20260504010036 5 326 11.3 27.4 0.05 1.22 1.22 98 978.4
20260504004534 5 207 9.7 27.4 0.05 1.19 1.19 98 979.2
20260504003028 4 273 11.3 27.4 0.08 1.17 1.17 98 979.9
20260504001526 4 5 16.1 33.8 0.08 1.17 1.17 97 980.7
20260504000022 4 60 12.9 32.2 0.10 1.17 1.17 97 981.6
20260503234521 4 355 14.5 29.0 0.10 1.14 1.14 97 982.6
20260503233015 3 77 14.5 35.4 0.10 1.09 1.09 97 983.2
20260503231513 3 112 11.3 29.0 0.20 1.09 1.09 97 983.6
20260503230009 3 92 17.7 35.4 0.33 1.07 1.07 97 984.4
20260503224504 3 65 19.3 33.8 0.41 1.04 1.04 97 985.6
20260503223003 3 27 17.7 33.8 0.38 0.99 0.99 96 986.6
20260503221602 4 75 12.9 37.0 0.30 0.89 0.89 96 987.6
20260503220055 4 79 14.5 29.0 0.18 0.71 0.71 96 988.7
20260503214551 5 196 12.9 33.8 0.18 0.64 0.64 96 989.5
20260503213052 5 132 14.5 30.6 0.28 0.61 0.61 96 990.5
20260503211603 5 218 6.4 29.0 0.30 0.58 0.58 96 991.5
20260503210041 5 86 9.7 32.2 0.33 0.56 0.56 96 992.4